KF4URA Weather Reports


Display with metric or nautical units.
time (UTC)temp
F
wind
direction
speed
MPH
gust
MPH
rain 1hr
in
rain 24hr
in
rain mn
in
humidity
%
barometer
mb
20260901222138 90 161 0.0 1.0 0.00 0.00 0.00 64 1014.4
20260901220025 90 232 0.0 3.0 0.00 0.00 0.00 65 1014.5
20260901213902 90 187 0.0 3.0 0.00 0.00 0.00 64 1014.6
20260901212849 90 188 0.0 3.0 0.00 0.00 0.00 64 1014.6
20260901211845 90 262 0.0 0.0 0.00 0.00 0.00 65 1014.6
20260901210859 90 263 0.0 3.0 0.00 0.00 0.00 62 1014.7
20260901203612 90 238 0.0 3.0 0.00 0.00 0.00 61 1014.6
20260901202557 91 198 0.0 3.0 0.00 0.00 0.00 61 1014.6
20260901201543 91 235 0.0 2.0 0.00 0.00 0.00 60 1014.5
20260901200524 91 209 0.0 5.0 0.00 0.00 0.00 60 1014.5
20260901195506 91 204 1.0 5.0 0.00 0.00 0.00 58 1014.4
20260901194439 91 205 1.0 4.0 0.00 0.00 0.00 59 1014.4
20260901193408 91 211 1.0 4.0 0.00 0.00 0.00 59 1014.6
20260901192403 91 202 1.0 4.0 0.00 0.00 0.00 59 1014.6
20260901191410 92 188 1.0 4.0 0.00 0.00 0.00 60 1014.4
20260901190401 91 141 0.0 4.0 0.00 0.00 0.00 59 1014.4
20260901184306 90 178 0.0 2.0 0.00 0.00 0.00 61 1014.9
20260901183310 90 178 0.0 7.0 0.00 0.00 0.00 64 1015.0
20260901182240 90 182 0.0 2.0 0.00 0.00 0.00 63 1014.9
20260901181224 89 156 0.0 0.0 0.00 0.00 0.00 64 1015.1
20260901180247 88 99 0.0 7.0 0.00 0.00 0.00 64 1015.2
20260901175235 88 154 0.0 2.0 0.00 0.00 0.00 68 1015.3
20260901174252 88 140 0.0 0.0 0.00 0.00 0.00 71 1015.4
20260901173312 87 138 0.0 0.0 0.00 0.00 0.00 73 1015.5
20260901172308 86 138 0.0 0.0 0.00 0.00 0.00 77 1015.8
20260901171328 85 138 0.0 0.0 0.00 0.00 0.00 73 1016.0
20260901164018 83 242 0.0 0.0 0.00 0.00 0.00 78 1016.2
20260901161824 82 244 0.0 1.0 0.00 0.00 0.00 79 1016.4
20260901155712 81 248 0.0 1.0 0.00 0.00 0.00 81 1016.5
20260901154704 81 248 0.0 0.0 0.00 0.00 0.00 83 1016.6
20260901153714 80 248 0.0 0.0 0.00 0.00 0.00 83 1016.6
20260901152704 80 248 0.0 0.0 0.00 0.00 0.00 82 1016.7
20260901151643 80 248 0.0 0.0 0.00 0.00 0.00 81 1017.0
20260901150633 80 248 0.0 0.0 0.00 0.00 0.00 80 1016.4
20260901144505 81 221 0.0 5.0 0.00 0.00 0.00 79 1016.2
20260901143445 81 183 0.0 3.0 0.00 0.00 0.00 78 1016.1
20260901142416 82 316 0.0 5.0 0.00 0.00 0.00 78 1016.0
20260901141400 82 316 1.0 5.0 0.00 0.00 0.00 78 1016.1
20260901135155 80 200 0.0 2.0 0.00 0.00 0.00 80 1015.8
20260901134212 80 191 0.0 2.0 0.00 0.00 0.00 82 1015.9
20260901133225 79 192 0.0 1.0 0.00 0.00 0.00 84 1015.8
20260901132229 79 192 0.0 3.0 0.00 0.00 0.00 84 1015.8
20260901131201 78 195 0.0 0.0 0.00 0.00 0.00 85 1015.9
20260901130146 77 198 0.0 0.0 0.00 0.00 0.00 87 1015.9
20260901125159 77 192 0.0 0.0 0.00 0.00 0.00 87 1016.2
20260901124221 76 192 0.0 0.0 0.00 0.00 0.00 87 1016.3
20260901123219 76 192 0.0 0.0 0.00 0.00 0.00 88 1016.2
20260901122148 75 192 0.0 0.0 0.00 0.00 0.00 89 1016.2
20260901121140 75 192 0.0 0.0 0.00 0.00 0.00 89 1016.1
20260901115017 75 192 0.0 0.0 0.00 0.00 0.00 89 1015.9
20260901112832 75 192 0.0 0.0 0.00 0.00 0.00 89 1015.7
20260901110717 75 192 0.0 0.0 0.00 0.00 0.00 89 1015.6
20260901105738 75 192 0.0 0.0 0.00 0.00 0.00 88 1015.6
20260901104743 75 192 0.0 0.0 0.00 0.00 0.00 88 1015.5
20260901103754 75 192 0.0 0.0 0.00 0.00 0.00 88 1015.4
20260901101648 75 192 0.0 0.0 0.00 0.00 0.00 89 1015.3
20260901100651 75 192 0.0 0.0 0.00 0.00 0.00 89 1015.2
20260901095632 75 192 0.0 0.0 0.00 0.00 0.00 90 1015.2
20260901094616 75 192 0.0 0.0 0.00 0.00 0.00 90 1015.2
20260901092450 75 192 0.0 0.0 0.00 0.00 0.00 90 1015.0
20260901090310 75 192 0.0 0.0 0.00 0.00 0.00 90 1015.0
20260901085305 75 192 0.0 0.0 0.00 0.00 0.00 90 1014.9
20260901084312 75 192 0.0 0.0 0.00 0.00 0.00 90 1015.0
20260901083243 75 192 0.0 0.0 0.00 0.00 0.00 90 1015.0
20260901082300 75 192 0.0 0.0 0.00 0.00 0.00 90 1014.9
20260901080106 75 192 0.0 0.0 0.00 0.00 0.00 90 1014.9
20260901075109 75 192 0.0 0.0 0.00 0.00 0.00 91 1014.8
20260901072919 75 192 0.0 0.0 0.00 0.00 0.00 91 1014.9
20260901071855 75 192 0.0 0.0 0.00 0.00 0.00 91 1014.8
20260901070847 75 192 0.0 0.0 0.00 0.00 0.00 91 1014.9
20260901065844 75 192 0.0 0.0 0.00 0.00 0.00 91 1014.9
20260901064858 75 192 0.0 0.0 0.00 0.00 0.00 91 1014.9
20260901063834 75 192 0.0 0.0 0.00 0.00 0.00 90 1014.9
20260901062855 75 192 0.0 0.0 0.00 0.00 0.00 90 1014.8
20260901061910 75 192 0.0 0.0 0.00 0.00 0.00 90 1014.8
20260901060915 76 192 0.0 0.0 0.00 0.00 0.00 89 1014.9
20260901054754 76 192 0.0 0.0 0.00 0.00 0.00 88 1015.1
20260901053720 76 192 0.0 0.0 0.00 0.00 0.00 88 1015.3
20260901052704 77 192 0.0 0.0 0.00 0.00 0.00 87 1015.3
20260901051638 77 192 0.0 0.0 0.00 0.00 0.00 86 1015.2
20260901050659 78 192 0.0 0.0 0.00 0.00 0.00 84 1015.0
20260901042157 80 192 0.0 0.0 0.00 0.00 0.00 80 1014.9
20260901041203 80 192 0.0 0.0 0.00 0.00 0.00 80 1014.9
20260901040221 80 207 0.0 1.0 0.00 0.00 0.00 80 1014.7
20260901034116 80 207 0.0 1.0 0.00 0.00 0.00 81 1014.4
20260901033140 79 207 0.0 2.0 0.00 0.00 0.00 82 1014.4
20260901032158 78 208 0.0 2.0 0.00 0.00 0.00 85 1014.6
20260901024907 74 208 0.0 0.0 0.00 0.00 0.00 92 1015.3
20260901023842 74 208 0.0 0.0 0.00 0.00 0.00 92 1015.6
20260901022851 74 208 0.0 0.0 0.00 0.00 0.00 91 1015.7
20260901021859 75 208 0.0 0.0 0.00 0.00 0.00 91 1015.8
20260901020903 75 208 0.0 0.0 0.00 0.00 0.00 91 1015.7
20260901015925 75 208 0.0 0.0 0.00 0.00 0.00 90 1015.9
20260901014934 75 208 0.0 0.0 0.00 0.00 0.00 90 1016.0
20260901013936 76 208 0.0 0.0 0.00 0.00 0.00 90 1016.1
20260901012950 76 208 0.0 0.0 0.00 0.00 0.00 89 1016.3
20260901012003 76 208 0.0 0.0 0.00 0.00 0.00 89 1016.2
20260901011007 77 208 0.0 0.0 0.00 0.00 0.00 87 1016.1
20260901005940 77 208 0.0 0.0 0.00 0.00 0.00 86 1015.8
20260901004932 78 208 0.0 0.0 0.00 0.00 0.00 85 1015.7
20260901002824 79 208 0.0 0.0 0.00 0.00 0.00 84 1015.7
20260901001848 80 208 0.0 0.0 0.00 0.00 0.00 83 1015.8
20260901000822 81 208 0.0 0.0 0.00 0.00 0.00 81 1015.8
20260831233533 83 208 0.0 0.0 0.00 0.00 0.00 78 1015.6
20260831231408 83 208 0.0 0.0 0.00 0.00 0.00 76 1015.6
20260831230409 83 208 0.0 0.0 0.00 0.00 0.00 76 1015.5
20260831225406 83 208 0.0 0.0 0.00 0.00 0.00 75 1015.5
20260831224341 83 208 0.0 0.0 0.00 0.00 0.00 74 1015.5
20260831223311 83 208 0.0 0.0 0.00 0.00 0.00 74 1015.5